SCP
0 0 0 0 0 0 0 0 0 0 0 0 0 0 0 0 0 0 0 0 0 0 0 0 0 0 0 0 0 0 0 0 0 0 0 0 0 0 0 0 0 0 0 0
0 0 0 0 0 0 0 0 0 0 0 0 0 0 0 0 0 0 0 0 0 0 0 0 0 0 0 0 0 0 0 0 0 0 0 0 0 0 0 0 0 0 0 0
0 0 0 0 0 0 0 0 0 0 0 0 0 0 0 0 0 0 0 0 0 0 0 0 0 0 0 0 0 0 0 0 0 0 0 0 0 0 0 0 0 0 0 0
0 0 0 0 0 0 0 0 0 0 0 0 0 0 0 0 0 0 0 0 0 0 0 0 0 0 0 0 0 0 0 0 0 0 0 0 0 0 0 0 0 0 0 0
0 0 0 0 0 0 0 0 0 0 0 0 0 0 0 0 0 0 0 0 0 0 0 0 0 0 0 0 0 0 0 0 0 0 0 0 0 0 0 0 0 0 0 0
0 0 0 0 0 0 0 0 0 0 0 0 0 0 0 0 0 0 0 0 0 0 0 0 0 0 0 0 0 0 0 0 0 0 0 0 0 0 0 0 0 0 0 0
0 0 0 0 0 0 0 0 0 0 0 0 0 0 0 0 0 0 0 0 0 0 0 0 0 0 0 0 0 0 0 0 0 0 0 0 0 0 0 0 0 0 0 0
0 0 0 0 0 0 0 0 0 0 0 0 0 0 0 0 0 0 0 0 0 0 0 0 0 0 0 0 0 0 0 0 0 0 0 0 0 0 0 0 0 0 0 0
0 0 0 0 0 0 0 0 0 0 0 0 0 0 0 0 0 0 0 0 0 0 0 0 0 0 0 0 0 0 0 0 0 0 0 0 0 0 0 0 0 0 0 0
0 0 0 0 0 0 0 0 0 0 0 0 0 0 0 0 0 0 0 0 0 0 0 0 0 0 0 0 0 0 0 0 0 0 0 0 0 0 0 0 0 0 0 0
0 0 0 0 0 0 0 0 0 0 0 0 0 0 0 0 0 0 0 0 0 0 0 0 0 0 0 0 0 0 0 0 0 0 0 0 0 0 0 0 0 0 0 0
0 0 0 0 0 0 0 0 0 0 0 0 0 0 0 0 0 0 0 0 0 0 0 0 0 0 0 0 0 0 0 0 0 0 0 0 0 0 0 0 0 0 0 0
0 0 0 0 0 0 0 0 0 0 0 0 0 0 0 0 0 0 0 0 0 0 0 0 0 0 0 0 0 0 0 0 0 0 0 0 0 0 0 0 0 0 0 0
0 0 0 0 0 0 0 0 0 0 0 0 0 0 0 0 0 0 0 0 0 0 0 0 0 0 0 0 0 0 0 0 0 0 0 0 0 0 0 0 0 0 0 0
0 0 0 0 0 0 0 0 0 0 0 0 0 0 0 0 0 0 0 0 0 0 0 0 0 0 0 0 0 0 0 0 0 0 0 0 0 0 0 0 0 0 0 0
0 0 0 0 0 0 0 0 0 0 0 0 0 0 0 0 0 0 0 0 0 0 0 0 0 0 0 0 0 0 0 0 0 0 0 0 0 0 0 0 0 0 0 0
0 0 0 0 0 0 0 0 0 0 0 0 0 0 0 0 0 0 0 0 0 0 0 0 0 0 0 0 0 0 0 0 0 0 0 0 0 0 0 0 0 0 0 0
0 0 0 0 0 0 0 0 0 0 0 0 0 0 0 0 0 0 0 0 0 0 0 0 0 0 0 0 0 0 0 0 0 0 0 0 0 0 0 0 0 0 0 0
0 0 0 0 0 0 0 0 0 0 0 0 0 0 0 0 0 0 0 0 0 0 0 0 0 0 0 0 0 0 0 0 0 0 0 0 0 0 0 0 0 0 0 0
0 0 0 0 0 0 0 0 0 0 0 0 0 0 0 0 0 0 0 0 0 0 0 0 0 0 0 0 0 0 0 0 0 0 0 0 0 0 0 0 0 0 0 0
0 0 0 0 0 0 0 0 0 0 0 0 0 0 0 0 0 0 0 0 0 0 -0 0 0 0 0 0 0 0 0 0 0 0 0 0 0 0 0 0 0 0 0 0
0 0 0 0 0 0 0 0 0 0 0 0 0 0 0 0 0 0 0 0 0 0 0 0 0 0 0 0 0 0 0 0 0 0 0 0 0 0 0 0 0 0 0 0
0 0 0 0 0 0 0 0 0 0 0 0 0 0 0 0 0 0 0 0 0 0 0 0 0 0 0 0 0 0 0 0 0 0 0 0 0 0 0 0 0 0 0 0
0 0 0 0 0 0 0 0 0 0 0 0 0 0 0 0 0 0 0 0 0 0 0 0 0 0 0 0 0 0 0 0 0 0 0 0 0 0 0 0 0 0 0 0
0 0 0 0 0 0 0 0 0 0 0 0 0 0 0 0 0 0 0 0 0 0 0 0 0 0 0 0 0 0 0 0 0 0 0 0 0 0 0 0 0 0 0 0
0 0 0 0 0 0 0 0 0 0 0 0 0 0 0 0 0 0 0 0 0 0 0 0 0 0 0 0 0 0 0 0 0 0 0 0 0 0 0 0 0 0 0 0
0 0 0 0 0 0 0 0 0 0 0 0 0 0 0 0 0 0 0 0 0 0 0 0 0 0 0 0 0 0 0 0 0 0 0 0 0 0 0 0 0 0 0 0
Wind_Speed
6 3 5 7 8 9 10 10 9 8 8 6 4 4 3 2 2 3 5 6 6 6 6 7 7 7 7 7 7 7 7 6 6 5 5 5 5 5 5 4 5 4 4 4
7 6 6 8 10 11 11 10 11 10 10 6 4 3 3 3 3 3 4 4 5 6 6 7 7 7 7 7 7 7 7 6 5 5 5 5 5 5 5 4 4 4 4 4
7 4 6 9 9 10 10 9 9 10 7 3 3 4 4 3 3 3 3 3 4 5 6 6 6 7 7 7 7 7 7 6 6 6 5 5 5 4 4 5 4 4 5 5
6 6 10 2 0 5 8 8 8 7 4 4 4 4 3 2 3 3 3 3 4 4 5 5 6 6 6 7 7 7 7 6 6 6 6 5 5 5 5 4 4 4 4 5
7 9 8 5 4 5 7 7 6 6 5 4 3 3 4 2 2 2 2 3 3 3 4 5 5 6 7 7 7 7 6 6 6 6 6 6 6 5 5 4 4 4 4 5
8 9 8 4 1 3 7 8 3 5 5 4 4 5 3 2 2 2 1 2 2 3 4 5 5 6 7 7 7 6 6 6 6 6 6 6 6 5 4 4 4 4 4 4
11 10 8 2 1 4 8 2 1 3 4 5 6 4 1 1 2 2 2 2 2 3 3 4 5 6 6 6 6 6 5 5 5 5 6 5 5 5 5 4 4 4 4 4
9 10 8 3 4 5 3 3 2 3 4 4 4 1 0 1 2 2 2 2 3 3 3 3 5 6 6 5 4 4 5 5 5 5 5 4 5 4 5 4 4 4 4 4
7 5 2 2 4 3 4 4 3 4 4 3 3 2 2 2 2 2 2 2 3 3 3 4 4 4 5 4 4 5 5 5 5 5 5 5 5 5 4 4 4 4 3 3
7 7 5 5 5 6 6 6 5 5 4 4 3 3 2 2 2 2 2 2 3 3 4 4 3 3 2 3 4 5 5 5 5 5 5 5 4 4 4 4 4 4 4 4
11 9 7 7 6 5 5 6 6 5 4 4 4 3 3 2 2 2 2 2 3 3 3 3 3 3 2 3 4 4 4 4 4 4 4 4 4 3 4 4 3 4 4 4
9 7 8 7 6 6 7 7 6 5 4 4 4 4 3 3 2 2 2 3 3 3 3 3 3 3 3 3 4 4 4 4 3 4 4 4 4 3 1 2 1 2 2 2
10 9 9 8 8 9 9 8 7 6 6 4 4 4 3 3 2 2 2 3 3 3 3 3 3 3 3 3 4 4 4 4 3 3 4 4 4 4 3 2 2 4 4 4
8 8 9 9 9 8 7 6 5 5 5 5 4 4 3 3 3 3 2 2 3 3 3 3 3 3 3 3 4 4 4 3 3 3 3 4 4 4 3 4 3 3 4 5
8 9 8 7 7 6 6 5 4 4 4 4 4 4 4 4 3 2 2 2 3 3 3 3 3 2 2 3 3 3 3 3 3 3 3 3 3 3 3 4 3 3 2 3
8 8 7 6 6 6 6 6 5 5 4 4 4 3 3 3 2 2 2 2 3 3 2 2 2 2 2 3 3 2 2 2 3 3 3 3 3 3 3 3 3 3 3 3
6 7 7 6 6 6 6 6 6 5 4 4 4 3 3 3 3 2 3 3 3 2 2 2 2 1 2 3 3 2 2 2 3 3 3 3 3 3 3 3 3 3 3 2
6 7 7 6 6 6 5 5 5 4 4 4 4 3 3 3 3 3 3 4 3 2 2 2 1 2 2 2 2 2 2 2 2 2 2 2 3 3 3 3 3 3 2 3
5 5 5 5 5 5 5 4 4 3 3 3 4 4 3 3 3 3 3 4 3 3 2 2 1 2 2 1 1 2 2 2 2 2 2 2 3 3 3 3 3 3 3 3
4 4 3 3 3 4 4 3 3 3 3 3 3 3 3 4 3 3 3 3 2 2 2 2 2 2 2 1 2 2 2 2 2 2 2 3 3 3 3 3 3 3 3 3
3 3 3 3 3 2 3 3 3 3 3 3 3 3 4 4 3 3 3 3 2 2 2 2 2 2 1 1 2 2 2 2 2 2 3 3 3 3 3 3 3 3 3 3
3 2 3 2 2 2 2 2 2 3 3 3 3 3 3 3 3 3 3 2 2 2 2 2 2 1 1 1 2 2 2 3 3 2 2 3 3 3 3 3 3 3 3 3
3 2 2 2 2 2 2 2 2 3 3 3 3 3 3 3 3 3 3 2 2 2 2 2 1 1 2 2 2 3 3 3 3 3 3 3 3 3 3 4 3 3 3 4
2 2 2 2 2 2 2 2 2 2 2 3 3 3 3 3 3 2 2 2 3 3 3 2 3 3 3 3 3 3 3 3 3 3 3 3 3 3 3 4 4 4 4 4
2 2 1 2 2 2 2 2 2 2 2 1 2 2 2 2 2 2 2 2 3 4 3 3 4 4 4 3 3 3 3 3 3 3 3 3 3 4 4 4 4 4 4 4
2 1 2 2 2 2 2 2 2 2 2 2 2 2 2 2 2 2 2 3 4 4 3 3 4 4 3 3 4 4 4 4 4 4 4 4 4 4 4 4 5 4 4 4
1 1 1 1 1 2 2 2 2 3 3 3 2 2 2 2 2 2 3 3 3 3 3 3 4 4 3 3 4 4 4 4 4 4 4 4 4 4 4 5 4 4 4 4
Wind_Direction
262 269 245 245 242 234 240 252 258 260 261 270 268 266 254 231 188 178 179 177 176 178 176 178 182 186 186 185 184 182 183 187 189 185 178 182 178 188 185 185 195 192 190 192
241 237 243 251 250 244 245 252 254 260 263 274 278 252 240 218 194 190 180 185 184 184 180 181 182 184 181 182 183 182 183 184 179 177 172 177 180 182 178 185 195 193 198 197
245 234 249 248 241 236 234 236 244 250 261 256 245 245 236 215 200 197 188 179 181 186 185 186 184 182 179 181 179 183 184 178 175 175 173 178 177 172 175 186 192 199 202 200
247 237 240 248 99 244 245 245 248 252 259 252 256 252 226 224 209 201 189 183 184 182 182 185 182 179 177 174 177 182 182 178 177 179 176 175 176 178 186 190 187 197 199 196
235 242 255 257 234 226 238 247 242 240 243 248 267 228 204 209 230 211 203 196 189 189 184 181 174 173 173 174 177 179 182 183 180 182 178 178 181 186 188 190 189 195 193 195
230 240 246 241 181 248 249 242 227 242 234 213 218 235 225 210 210 188 167 176 169 172 175 174 169 169 174 174 177 184 187 188 181 180 179 184 188 188 183 184 192 193 190 200
231 241 251 277 170 208 227 250 35 245 230 212 227 272 339 174 186 173 149 145 155 160 162 167 167 171 178 179 185 186 183 184 180 180 186 186 185 185 182 182 188 197 197 202
224 234 239 149 175 219 284 356 329 273 251 239 250 291 222 164 159 152 147 147 157 158 156 159 167 175 181 185 185 177 177 182 185 186 184 182 180 182 185 183 190 198 206 203
232 249 336 198 236 281 306 297 302 291 281 251 239 229 217 189 169 163 163 155 159 161 157 154 163 181 184 172 172 176 180 184 188 189 186 185 182 181 185 189 201 206 208 212
241 246 257 263 270 274 278 286 295 295 283 250 232 225 218 203 188 180 179 166 171 170 160 153 155 166 166 158 171 183 184 182 184 188 187 188 186 193 195 197 204 210 212 216
247 254 260 255 256 267 280 284 288 290 278 258 239 223 214 211 203 188 178 174 182 181 174 165 161 164 157 156 179 186 185 182 187 188 185 188 187 202 210 208 214 220 217 216
249 252 259 264 267 271 274 275 276 275 269 253 236 224 215 208 206 204 187 180 184 184 188 182 173 172 166 169 188 192 188 185 186 187 186 189 186 184 183 240 191 233 255 251
268 271 274 276 272 267 267 267 268 263 255 246 236 221 207 199 199 201 198 194 191 188 194 191 185 190 188 189 197 202 195 186 185 194 194 195 196 199 195 181 180 202 207 218
261 260 263 266 268 263 260 261 260 254 248 241 230 216 204 197 193 196 203 206 196 185 191 190 191 197 202 204 207 208 201 188 190 195 201 204 204 206 207 202 199 196 189 196
256 259 261 265 271 265 258 249 239 237 234 237 226 218 207 200 197 199 205 209 198 187 189 191 194 199 209 214 212 207 198 195 194 194 202 208 207 206 209 211 211 202 187 174
259 264 258 253 257 260 251 238 235 236 235 230 224 220 216 208 201 201 196 199 199 197 200 202 205 209 215 216 210 206 192 176 198 199 199 201 203 206 209 211 210 207 207 195
250 257 255 255 254 252 249 245 242 241 235 231 231 221 212 211 214 205 192 191 204 211 205 205 217 208 208 212 210 210 197 175 185 197 197 202 207 212 212 213 213 211 213 194
253 255 252 248 245 247 250 250 242 234 231 230 227 220 213 213 217 215 202 193 190 196 199 207 231 219 199 205 210 208 199 194 204 205 199 201 212 214 215 213 211 213 210 181
266 261 259 257 251 245 247 239 232 230 231 225 220 222 225 229 227 218 206 200 198 207 217 216 214 215 196 182 213 203 203 199 199 200 202 192 203 209 209 211 212 213 208 197
265 262 261 263 259 248 241 235 224 219 221 219 219 226 232 232 221 210 206 209 214 225 217 203 198 207 213 191 207 209 204 201 199 203 200 200 205 209 209 211 213 215 215 213
270 272 273 272 266 254 244 233 222 220 224 219 217 224 233 235 223 215 211 215 215 221 209 185 204 216 223 219 204 208 205 203 203 207 208 207 208 212 215 217 219 220 221 222
269 267 268 267 262 257 249 239 227 220 224 224 222 224 229 226 217 215 224 230 218 193 201 199 209 199 209 225 215 213 210 209 209 210 215 218 217 217 219 222 225 227 230 230
275 266 255 243 237 246 261 245 228 218 212 213 216 219 223 221 217 213 218 220 215 191 205 208 196 169 204 224 222 218 216 217 215 215 220 224 225 224 225 226 230 231 233 234
281 272 261 241 216 211 236 253 245 224 213 213 213 214 218 213 213 221 225 196 197 195 212 197 176 189 217 228 226 224 224 224 224 224 226 227 229 231 230 231 231 232 233 235
272 263 242 220 220 227 231 234 223 209 211 214 222 229 228 224 223 215 211 207 198 201 215 201 196 209 223 229 228 227 229 230 232 231 230 231 233 235 236 234 232 233 233 233
267 260 250 244 244 239 229 225 225 220 215 220 235 241 227 211 213 215 210 211 212 215 221 213 208 213 225 232 234 233 231 230 230 232 234 236 237 237 237 237 237 234 234 235
273 261 249 250 257 247 242 239 236 233 231 228 231 240 230 217 219 221 220 221 218 216 218 217 217 221 226 232 236 237 236 234 234 236 235 235 238 240 237 238 237 236 235 236